KB2UHF-8 Weather Reports


time (UTC)temp
C
wind
direction
speed
KPH
gust
KPH
rain 1hr
cm
rain 24hr
cm
rain mn
cm
humidity
%
barometer
mb
20260906165516 24 113 6.4 14.5 0.00 0.00 0.00 77 1021.4
20260906164516 24 135 4.8 12.9 0.00 0.00 0.00 76 1021.5
20260906163515 23 135 6.4 14.5 0.00 0.00 0.00 78 1021.4
20260906162516 23 135 4.8 14.5 0.00 0.00 0.00 78 1021.7
20260906161515 23 135 8.0 12.9 0.00 0.00 0.00 76 1021.7
20260906160516 23 135 3.2 11.3 0.00 0.00 0.00 78 1021.7
20260906155517 23 90 6.4 12.9 0.00 0.00 0.00 79 1021.8
20260906154515 23 135 6.4 12.9 0.00 0.00 0.00 80 1021.7
20260906153517 23 113 6.4 12.9 0.00 0.00 0.00 79 1021.6
20260906152535 22 135 8.0 14.5 0.00 0.00 0.00 80 1021.5
20260906151535 22 135 6.4 12.9 0.00 0.00 0.00 83 1021.4
20260906150557 21 113 8.0 16.1 0.00 0.00 0.00 85 1021.3
20260906145537 21 113 6.4 12.9 0.00 0.00 0.00 86 1021.2
20260906144515 20 90 6.4 11.3 0.00 0.00 0.00 89 1021.0
20260906143515 20 113 8.0 14.5 0.00 0.00 0.00 92 1021.0
20260906142517 19 113 6.4 9.7 0.00 0.00 0.00 96 1021.0
20260906141536 18 90 6.4 11.3 0.00 0.00 0.00 98 1021.0
20260906140517 18 68 4.8 11.3 0.00 0.00 0.00 98 1021.2
20260906135517 18 113 6.4 11.3 0.00 0.00 0.00 98 1021.2
20260906134515 17 90 4.8 11.3 0.00 0.00 0.00 98 1021.2
20260906133535 17 90 4.8 11.3 0.00 0.00 0.00 98 1020.9
20260906132515 17 90 1.6 4.8 0.00 0.00 0.00 98 1021.1
20260906131515 17 90 3.2 6.4 0.00 0.00 0.00 98 1021.0
20260906130515 17 68 3.2 6.4 0.00 0.00 0.00 98 1021.0
20260906125555 17 90 3.2 6.4 0.00 0.00 0.00 98 1020.8
20260906124515 17 90 4.8 8.0 0.00 0.00 0.00 98 1020.8
20260906123515 17 68 4.8 9.7 0.00 0.00 0.00 98 1020.6
20260906122515 17 90 4.8 9.7 0.00 0.00 0.00 98 1020.7
20260906121515 17 90 3.2 6.4 0.00 0.03 0.00 98 1020.5
20260906120539 17 90 3.2 6.4 0.00 0.03 0.00 98 1020.4
20260906115517 17 68 4.8 9.7 0.00 0.03 0.00 98 1020.2
20260906114517 17 90 4.8 9.7 0.00 0.03 0.00 98 1020.0
20260906113517 17 90 6.4 12.9 0.00 0.03 0.00 98 1019.7
20260906112519 17 90 4.8 11.3 0.00 0.03 0.00 98 1019.8
20260906111517 17 90 4.8 11.3 0.00 0.03 0.00 98 1020.0
20260906110517 17 90 4.8 8.0 0.00 0.03 0.00 98 1020.0
20260906105517 17 68 3.2 6.4 0.00 0.03 0.00 98 1019.8
20260906104517 17 45 3.2 6.4 0.00 0.03 0.00 98 1019.8
20260906103517 17 45 3.2 4.8 0.00 0.03 0.00 98 1019.7
20260906102517 17 0.0 3.2 0.00 0.03 0.00 98 1019.4
20260906101517 17 68 3.2 6.4 0.00 0.03 0.00 98 1019.2
20260906100517 17 90 4.8 11.3 0.00 0.03 0.00 98 1019.0
20260906095517 17 90 3.2 6.4 0.00 0.03 0.00 98 1019.1
20260906094517 17 90 3.2 8.0 0.00 0.03 0.00 98 1019.1
20260906093517 17 90 3.2 6.4 0.00 0.03 0.00 98 1019.0
20260906092517 17 90 3.2 6.4 0.00 0.03 0.00 98 1019.2
20260906091517 17 90 4.8 12.9 0.00 0.03 0.00 98 1019.1
20260906090517 17 68 3.2 4.8 0.00 0.03 0.00 98 1019.1
20260906085517 17 90 1.6 4.8 0.00 0.03 0.00 98 1019.4
20260906084537 17 68 1.6 6.4 0.00 0.03 0.00 98 1019.5
20260906083557 17 45 3.2 6.4 0.00 0.03 0.00 98 1019.5
20260906082517 17 45 3.2 6.4 0.00 0.03 0.00 97 1019.4
20260906081537 17 68 1.6 4.8 0.00 0.03 0.00 98 1019.3
20260906080517 17 68 1.6 4.8 0.00 0.03 0.00 97 1019.2
20260906075517 17 68 1.6 4.8 0.00 0.03 0.00 97 1019.2
20260906074517 17 90 1.6 4.8 0.00 0.03 0.00 97 1019.4
20260906073517 17 0.0 4.8 0.00 0.03 0.00 97 1019.3
20260906072517 17 45 1.6 4.8 0.00 0.03 0.00 97 1019.6
20260906071517 17 68 3.2 6.4 0.00 0.03 0.00 96 1019.5
20260906070517 17 68 1.6 4.8 0.00 0.03 0.00 96 1019.5
20260906065516 18 45 1.6 4.8 0.00 0.03 0.00 96 1019.5
20260906064537 18 0.0 0.0 0.00 0.03 0.00 96 1019.8
20260906063517 18 113 3.2 6.4 0.00 0.03 0.00 96 1019.7
20260906062537 18 113 3.2 6.4 0.00 0.03 0.00 96 1019.6
20260906061537 18 0.0 4.8 0.00 0.03 0.00 96 1019.7
20260906060516 18 90 3.2 4.8 0.00 0.03 0.00 96 1019.6
20260906055516 18 90 3.2 6.4 0.00 0.03 0.00 96 1019.5
20260906054517 18 90 3.2 4.8 0.00 0.03 0.00 96 1019.4
20260906053516 19 113 1.6 4.8 0.00 0.03 0.00 95 1019.3
20260906052517 19 0.0 0.0 0.00 0.03 0.00 95 1019.4
20260906051517 19 0.0 0.0 0.00 0.03 0.00 95 1019.4
20260906050517 19 0.0 4.8 0.00 0.03 0.00 95 1019.6
20260906045515 19 0.0 0.0 0.00 0.03 0.03 94 1019.6
20260906044515 20 0.0 0.0 0.00 0.03 0.03 94 1019.8
20260906043515 20 0.0 0.0 0.00 0.03 0.03 93 1019.8
20260906042517 20 0.0 0.0 0.00 0.03 0.03 93 1019.9
20260906041535 20 90 1.6 6.4 0.00 0.03 0.03 93 1019.7
20260906040515 20 90 3.2 9.7 0.00 0.03 0.03 92 1019.6
20260906035515 20 0.0 3.2 0.00 0.03 0.03 92 1019.5
20260906034515 20 90 3.2 4.8 0.00 0.03 0.03 92 1019.1
20260906033535 20 90 3.2 6.4 0.00 0.03 0.03 93 1019.0
20260906032535 20 90 3.2 9.7 0.00 0.03 0.03 92 1018.8
20260906031515 20 90 3.2 8.0 0.00 0.03 0.03 92 1018.4
20260906030535 20 68 1.6 6.4 0.00 0.03 0.03 92 1018.6
20260906025537 21 90 3.2 6.4 0.00 0.03 0.03 91 1018.6
20260906024517 21 68 1.6 8.0 0.00 0.03 0.03 90 1018.7
20260906023519 21 90 4.8 11.3 0.00 0.03 0.03 90 1018.3
20260906022517 21 90 4.8 11.3 0.00 0.03 0.03 89 1018.1
20260906021517 21 90 4.8 16.1 0.00 0.03 0.03 90 1018.0
20260906020517 22 68 6.4 12.9 0.00 0.03 0.03 89 1018.1
20260906015517 22 90 8.0 14.5 0.00 0.03 0.03 89 1017.7
20260906014517 22 113 6.4 17.7 0.00 0.03 0.03 88 1017.6
20260906013517 22 90 6.4 19.3 0.00 0.03 0.03 88 1017.4
20260906012517 22 90 6.4 11.3 0.00 0.03 0.03 88 1017.2
20260906011557 22 90 8.0 14.5 0.00 0.03 0.03 88 1016.9
20260906010517 22 90 8.0 14.5 0.00 0.03 0.03 87 1016.8
20260906005517 22 90 4.8 11.3 0.00 0.03 0.03 87 1016.7
20260906004537 22 68 3.2 11.3 0.00 0.03 0.03 87 1016.7
20260906003517 22 90 4.8 9.7 0.00 0.03 0.03 88 1016.6
20260906002537 22 68 1.6 4.8 0.00 0.03 0.03 89 1016.5
20260906001537 22 90 4.8 11.3 0.00 0.03 0.03 89 1016.5
20260906000517 22 68 3.2 6.4 0.00 0.03 0.03 90 1016.7
20260905235537 22 68 6.4 14.5 0.00 0.03 0.03 90 1016.6
20260905234517 23 90 3.2 6.4 0.00 0.03 0.03 87 1016.8
20260905233517 23 0.0 3.2 0.00 0.03 0.03 86 1016.9
20260905232559 23 0.0 0.0 0.00 0.03 0.03 85 1017.1
20260905231517 23 90 1.6 4.8 0.00 0.03 0.03 86 1017.2
20260905230517 23 0.0 0.0 0.00 0.03 0.03 87 1017.5
20260905225537 23 0.0 0.0 0.00 0.03 0.03 87 1017.6
20260905224517 23 45 3.2 6.4 0.00 0.03 0.03 84 1017.5
20260905223517 23 68 3.2 8.0 0.00 0.03 0.03 84 1017.3
20260905222517 24 68 4.8 8.0 0.00 0.03 0.03 84 1017.1
20260905221517 24 68 3.2 6.4 0.00 0.03 0.03 83 1017.2
20260905220517 24 45 1.6 6.4 0.00 0.03 0.03 83 1017.3
20260905215537 25 45 1.6 6.4 0.00 0.03 0.03 82 1017.4
20260905214517 25 338 1.6 4.8 0.00 0.03 0.03 83 1017.6
20260905213517 24 0.0 3.2 0.00 0.03 0.03 83 1017.7
20260905212517 25 315 1.6 6.4 0.00 0.03 0.03 82 1017.6
20260905211517 24 68 1.6 6.4 0.00 0.03 0.03 81 1017.5
20260905210517 25 68 3.2 6.4 0.00 0.03 0.03 80 1017.8
20260905205517 25 90 4.8 11.3 0.00 0.03 0.03 80 1017.7
20260905204517 25 45 3.2 11.3 0.00 0.03 0.03 82 1017.6
20260905203516 24 68 6.4 12.9 0.00 0.03 0.03 81 1017.6
20260905202516 24 315 1.6 6.4 0.00 0.03 0.03 82 1017.6
20260905201517 24 68 4.8 11.3 0.00 0.03 0.03 83 1017.7
20260905200517 24 68 6.4 14.5 0.00 0.03 0.03 83 1018.0
20260905195537 24 90 8.0 12.9 0.00 0.03 0.03 81 1017.8
20260905194516 25 68 3.2 9.7 0.00 0.03 0.03 83 1018.1
20260905193536 24 90 8.0 17.7 0.00 0.03 0.03 84 1017.8
20260905192516 24 68 8.0 12.9 0.00 0.03 0.03 82 1018.0
20260905191537 24 90 9.7 17.7 0.00 0.03 0.03 84 1017.9
20260905190516 24 68 6.4 16.1 0.00 0.03 0.03 84 1017.9
20260905185518 24 90 9.7 17.7 0.00 0.03 0.03 83 1018.0
20260905184517 25 45 8.0 14.5 0.00 0.03 0.03 82 1018.0
20260905183536 25 90 8.0 17.7 0.00 0.03 0.03 80 1018.1
20260905182516 25 68 8.0 17.7 0.00 0.03 0.03 83 1018.1
20260905181516 25 68 6.4 14.5 0.00 0.03 0.03 82 1018.1
20260905180516 24 90 6.4 12.9 0.00 0.03 0.03 85 1018.4
20260905175516 24 68 6.4 12.9 0.00 0.03 0.03 85 1018.5
20260905174516 24 68 8.0 16.1 0.00 0.05 0.03 84 1018.3
20260905173516 24 45 4.8 12.9 0.00 0.10 0.03 84 1018.4
20260905172516 25 68 1.6 9.7 0.00 0.10 0.03 85 1018.5
20260905171516 24 68 4.8 14.5 0.00 0.13 0.03 86 1018.4
20260905170516 25 90 4.8 11.3 0.00 0.15 0.03 85 1018.3